Location: Battersea Observatory
(44.4318°N, 76.3841°W)
Time: 14:06:17
(UTC-04:00)

ISS - Visible Passes

Search period start: 26 May 2022 00:00
Search period end: 05 June 2022 00:00
Orbit: 414 x 421 km, 51.6° (Epoch: 26 May)

Date Brightness Start Highest point End Pass type
(mag) Time Alt. Az. Time Alt. Az. Time Alt. Az.
26 May -2.0 21:12:31 10° NW 21:15:28 28° NNE 21:18:25 10° ENE visible
26 May -3.9 22:49:11 10° WNW 22:52:32 84° SW 22:53:04 60° SE visible
27 May -3.5 22:01:04 10° NW 22:04:24 63° NNE 22:06:37 19° ESE visible
27 May -1.4 23:38:22 10° W 23:39:32 16° WSW 23:39:32 16° WSW visible
28 May -2.9 21:12:59 10° NW 21:16:13 44° NNE 21:19:26 10° E visible
28 May -2.8 22:49:52 10° WNW 22:52:55 32° SW 22:53:07 32° SSW visible
29 May -3.4 22:01:33 10° WNW 22:04:51 54° SW 22:06:43 22° SSE visible
30 May -3.8 21:13:20 10° WNW 21:16:42 88° SW 21:20:03 10° ESE visible
30 May -1.4 22:51:25 10° WSW 22:52:59 13° SW 22:53:15 13° SW visible
31 May -1.9 22:02:24 10° W 22:05:00 21° SW 22:06:55 14° S visible
01 Jun -2.6 21:13:51 10° WNW 21:16:55 34° SW 21:19:58 10° SSE visible
